Flag for Norway Weather past 2 weeks in Hammerfest, Norway

Now
21 °F

Passing clouds.


Feels Like: 16 °F
Forecast: 22 / 26 °F
Wind: 3 mph from Northeast

Location: Hammerfest

Current Time: Dec 21, 2014 at 9:20:15 PM

Latest Report: Dec 21, 2014 at 8:50 PM


Visibility: N/A

Pressure: 29.47 "Hg

Humidity: 93%

Dew point: 19 °F

Location of HammerfestLocation

Historic Weather in Hammerfest — Graph

°F

Hammerfest temperature yesterday

Maximum temperature yesterday: 27 °F (at 7:50 PM)
Minimum temperature yesterday: 18 °F (at 8:50 AM)
Average temperature yesterday: 23 °F

Past Weeks' High & Low Weather Summary

 TemperatureHumidityPressure
High37 °F (Dec 7, 1:50 PM)100% (Dec 7, 1:50 AM)29.47 "Hg (Dec 7, 1:50 AM)
Low18 °F (Dec 20, 8:50 AM)55% (Dec 10, 3:50 AM)28.82 "Hg (Dec 11, 1:50 AM)
Average29 °F79%29.13 "Hg
* Reported Dec 6 7:50 PM — Dec 21 7:50 PM, Hammerfest, Weather by CustomWeather, © 2014

Note: Actual official high and low records may vary slightly from our data, if they occured in-between our weather recording intervals... More about our weather records

Advertising

Hammerfest weather history for previous 24 hours

 ConditionsComfort  
Time TempWeatherWind HumidityBarometerVisibility
7:50 PM
Dec 21
23 °FPassing clouds.2 mph86%29.47 "HgN/A
6:50 PM21 °FPassing clouds.2 mph86%29.47 "HgN/A
5:50 PM25 °FScattered showers. Passing clouds.2 mph86%29.47 "HgN/A
4:50 PM23 °FScattered clouds.5 mph80%29.47 "HgN/A
3:50 PM21 °FPassing clouds.3 mph86%29.47 "HgN/A
2:50 PM27 °FScattered clouds.8 mph80%29.47 "HgN/A
1:50 PM25 °FPassing clouds.7 mph86%29.45 "HgN/A
12:50 PM25 °FScattered clouds.7 mph80%29.45 "HgN/A
11:50 AM23 °FScattered clouds.7 mph86%29.45 "HgN/A
10:50 AM23 °FScattered clouds.3 mph86%29.42 "HgN/A
9:50 AM27 °FChilly.9 mph86%29.42 "HgN/A
8:50 AM23 °FLight snow. Broken clouds.6 mph86%29.39 "HgN/A
7:50 AM25 °FPartly sunny.3 mph86%29.36 "HgN/A
6:50 AM23 °FSunny.3 mph86%29.36 "Hg10 mi
5:50 AM19 °FClear.2 mph86%29.33 "Hg10 mi
4:50 AM19 °FCold.3 mph86%29.30 "HgN/A
3:50 AM19 °FCold.2 mph93%29.30 "HgN/A
2:50 AM23 °FCold.7 mph80%29.27 "HgN/A
1:50 AM19 °FCold.6 mph79%29.24 "HgN/A
12:50 AM23 °FCold.7 mph80%29.24 "HgN/A
11:50 PM
Dec 20
21 °FCold.7 mph80%29.21 "HgN/A
10:50 PM23 °FCold.5 mph80%29.21 "HgN/A
9:50 PM25 °FOvercast.No wind74%29.18 "HgN/A
Weather by CustomWeather, © 2014

See weather overviewHow to use our weather pages